Year,Month,Day,Hour,Minute,Value (Times are PST for temperature in C)
2012,11,24,00,00,3.30
2012,11,24,00,01,3.30
2012,11,24,00,02,3.20
2012,11,24,00,03,3.20
2012,11,24,00,04,3.30
2012,11,24,00,05,3.30
2012,11,24,00,06,3.30
2012,11,24,00,07,3.20
2012,11,24,00,08,3.30
2012,11,24,00,09,3.30
2012,11,24,00,10,3.40
2012,11,24,00,11,3.50
2012,11,24,00,12,3.60
2012,11,24,00,13,3.50
2012,11,24,00,14,3.40
2012,11,24,00,15,3.30
2012,11,24,00,16,3.20
2012,11,24,00,17,3.20
2012,11,24,00,18,3.10
2012,11,24,00,19,3.10
2012,11,24,00,20,3.10
2012,11,24,00,21,3.10
2012,11,24,00,22,3.20
2012,11,24,00,23,3.30
2012,11,24,00,24,3.40
2012,11,24,00,25,3.50
2012,11,24,00,26,3.50
2012,11,24,00,27,3.40
2012,11,24,00,28,3.30
2012,11,24,00,29,3.20
2012,11,24,00,30,3.10
2012,11,24,00,31,3.00
2012,11,24,00,32,3.00
2012,11,24,00,33,2.90
2012,11,24,00,34,2.90
2012,11,24,00,35,2.80
2012,11,24,00,36,2.80
2012,11,24,00,37,2.80
2012,11,24,00,38,2.80
2012,11,24,00,39,2.80
2012,11,24,00,40,2.90
2012,11,24,00,41,2.90
2012,11,24,00,42,3.00
2012,11,24,00,43,3.00
2012,11,24,00,44,3.00
2012,11,24,00,45,3.00
2012,11,24,00,46,3.00
2012,11,24,00,47,2.90
2012,11,24,00,48,2.90
2012,11,24,00,49,2.90
2012,11,24,00,50,3.00
2012,11,24,00,51,3.10
2012,11,24,00,52,3.20
2012,11,24,00,53,3.10
2012,11,24,00,54,3.00
2012,11,24,00,55,2.90
2012,11,24,00,56,2.90
2012,11,24,00,57,2.80
2012,11,24,00,58,2.80
2012,11,24,00,59,2.80
2012,11,24,01,00,2.80
2012,11,24,01,01,2.80
2012,11,24,01,02,2.80
2012,11,24,01,03,2.80
2012,11,24,01,04,2.90
2012,11,24,01,05,2.90
2012,11,24,01,06,2.80
2012,11,24,01,07,2.90
2012,11,24,01,08,2.90
2012,11,24,01,09,2.80
2012,11,24,01,10,2.80
2012,11,24,01,11,2.80
2012,11,24,01,12,2.80
2012,11,24,01,13,2.80
2012,11,24,01,14,2.80
2012,11,24,01,15,2.80
2012,11,24,01,16,2.80
2012,11,24,01,17,2.80
2012,11,24,01,18,2.80
2012,11,24,01,19,2.70
2012,11,24,01,20,2.70
2012,11,24,01,21,2.70
2012,11,24,01,22,2.80
2012,11,24,01,23,2.80
2012,11,24,01,24,2.80
2012,11,24,01,25,2.80
2012,11,24,01,26,2.80
2012,11,24,01,27,2.70
2012,11,24,01,28,2.70
2012,11,24,01,29,2.70
2012,11,24,01,30,2.70
2012,11,24,01,31,2.70
2012,11,24,01,32,2.70
2012,11,24,01,33,2.70
2012,11,24,01,34,2.70
2012,11,24,01,35,2.70
2012,11,24,01,36,2.70
2012,11,24,01,37,2.70
2012,11,24,01,38,2.70
2012,11,24,01,39,2.70
2012,11,24,01,40,2.70
2012,11,24,01,41,2.70
2012,11,24,01,42,2.70
2012,11,24,01,43,2.70
2012,11,24,01,44,2.70
2012,11,24,01,45,2.70
2012,11,24,01,46,2.70
2012,11,24,01,47,2.70
2012,11,24,01,48,2.70
2012,11,24,01,49,2.70
2012,11,24,01,50,2.60
2012,11,24,01,51,2.60
2012,11,24,01,52,2.60
2012,11,24,01,53,2.70
2012,11,24,01,54,2.80
2012,11,24,01,55,2.90
2012,11,24,01,56,3.10
2012,11,24,01,57,3.20
2012,11,24,01,58,3.50
2012,11,24,01,59,3.60
2012,11,24,02,00,3.80
2012,11,24,02,01,3.90
2012,11,24,02,02,4.00
2012,11,24,02,03,4.00
2012,11,24,02,04,4.00
2012,11,24,02,05,4.00
2012,11,24,02,06,4.00
2012,11,24,02,07,3.90
2012,11,24,02,08,3.90
2012,11,24,02,09,3.90
2012,11,24,02,10,3.90
2012,11,24,02,11,3.80
2012,11,24,02,12,3.80
2012,11,24,02,13,3.80
2012,11,24,02,14,3.70
2012,11,24,02,15,3.70
2012,11,24,02,16,3.60
2012,11,24,02,17,3.50
2012,11,24,02,18,3.50
2012,11,24,02,19,3.40
2012,11,24,02,20,3.40
2012,11,24,02,21,3.40
2012,11,24,02,22,3.40
2012,11,24,02,23,3.40
2012,11,24,02,24,3.40
2012,11,24,02,25,3.30
2012,11,24,02,26,3.30
2012,11,24,02,27,3.20
2012,11,24,02,28,3.20
2012,11,24,02,29,3.10
2012,11,24,02,30,3.10
2012,11,24,02,31,3.00
2012,11,24,02,32,3.00
2012,11,24,02,33,3.00
2012,11,24,02,34,3.00
2012,11,24,02,35,3.10
2012,11,24,02,36,3.10
2012,11,24,02,37,3.10
2012,11,24,02,38,3.10
2012,11,24,02,39,3.00
2012,11,24,02,40,3.00
2012,11,24,02,41,3.00
2012,11,24,02,42,3.00
2012,11,24,02,43,3.00
2012,11,24,02,44,2.90
2012,11,24,02,45,2.90
2012,11,24,02,46,2.90
2012,11,24,02,47,2.80
2012,11,24,02,48,2.80
2012,11,24,02,49,2.80
2012,11,24,02,50,2.90
2012,11,24,02,51,2.80
2012,11,24,02,52,2.80
2012,11,24,02,53,2.80
2012,11,24,02,54,2.80
2012,11,24,02,55,2.80
2012,11,24,02,56,2.80
2012,11,24,02,57,2.80
2012,11,24,02,58,2.80
2012,11,24,02,59,2.80
2012,11,24,03,00,2.80
2012,11,24,03,01,2.80
2012,11,24,03,02,2.80
2012,11,24,03,03,2.80
2012,11,24,03,04,2.90
2012,11,24,03,05,3.00
2012,11,24,03,06,3.10
2012,11,24,03,07,3.20
2012,11,24,03,08,3.20
2012,11,24,03,09,3.30
2012,11,24,03,10,3.40
2012,11,24,03,11,3.40
2012,11,24,03,12,3.30
2012,11,24,03,13,3.30
2012,11,24,03,14,3.40
2012,11,24,03,15,3.40
2012,11,24,03,16,3.30
2012,11,24,03,17,3.30
2012,11,24,03,18,3.20
2012,11,24,03,19,3.20
2012,11,24,03,20,3.20
2012,11,24,03,21,3.10
2012,11,24,03,22,3.00
2012,11,24,03,23,3.00
2012,11,24,03,24,2.90
2012,11,24,03,25,2.80
2012,11,24,03,26,2.80
2012,11,24,03,27,2.80
2012,11,24,03,28,2.80
2012,11,24,03,29,2.70
2012,11,24,03,30,2.80
2012,11,24,03,31,2.70
2012,11,24,03,32,2.70
2012,11,24,03,33,2.80
2012,11,24,03,34,2.80
2012,11,24,03,35,2.80
2012,11,24,03,36,2.80
2012,11,24,03,37,2.80
2012,11,24,03,38,2.80
2012,11,24,03,39,2.80
2012,11,24,03,40,2.80
2012,11,24,03,41,2.90
2012,11,24,03,42,2.90
2012,11,24,03,43,2.90
2012,11,24,03,44,2.90
2012,11,24,03,45,2.90
2012,11,24,03,46,2.90
2012,11,24,03,47,2.90
2012,11,24,03,48,2.90
2012,11,24,03,49,3.00
2012,11,24,03,50,3.00
2012,11,24,03,51,3.10
2012,11,24,03,52,3.10
2012,11,24,03,53,3.20
2012,11,24,03,54,3.30
2012,11,24,03,55,3.40
2012,11,24,03,56,3.40
2012,11,24,03,57,3.40
2012,11,24,03,58,3.50
2012,11,24,03,59,3.50
2012,11,24,04,00,3.50
2012,11,24,04,01,3.40
2012,11,24,04,02,3.40
2012,11,24,04,03,3.40
2012,11,24,04,04,3.50
2012,11,24,04,05,3.50
2012,11,24,04,06,3.60
2012,11,24,04,07,3.60
2012,11,24,04,08,3.60
2012,11,24,04,09,3.50
2012,11,24,04,10,3.50
2012,11,24,04,11,3.40
2012,11,24,04,12,3.40
2012,11,24,04,13,3.40
2012,11,24,04,14,3.40
2012,11,24,04,15,3.40
2012,11,24,04,16,3.40
2012,11,24,04,17,3.30
2012,11,24,04,18,3.20
2012,11,24,04,19,3.20
2012,11,24,04,20,3.30
2012,11,24,04,21,3.30
2012,11,24,04,22,3.30
2012,11,24,04,23,3.40
2012,11,24,04,24,3.50
2012,11,24,04,25,3.60
2012,11,24,04,26,3.70
2012,11,24,04,27,3.80
2012,11,24,04,28,4.00
2012,11,24,04,29,4.10
2012,11,24,04,30,4.30
2012,11,24,04,31,4.30
2012,11,24,04,32,4.30
2012,11,24,04,33,4.30
2012,11,24,04,34,4.30
2012,11,24,04,35,4.30
2012,11,24,04,36,4.30
2012,11,24,04,37,4.30
2012,11,24,04,38,4.30
2012,11,24,04,39,4.30
2012,11,24,04,40,4.20
2012,11,24,04,41,4.20
2012,11,24,04,42,4.10
2012,11,24,04,43,4.10
2012,11,24,04,44,4.00
2012,11,24,04,45,3.90
2012,11,24,04,46,3.90
2012,11,24,04,47,3.80
2012,11,24,04,48,3.80
2012,11,24,04,49,3.80
2012,11,24,04,50,3.80
2012,11,24,04,51,3.70
2012,11,24,04,52,3.70
2012,11,24,04,53,3.60
2012,11,24,04,54,3.60
2012,11,24,04,55,3.60
2012,11,24,04,56,3.60
2012,11,24,04,57,3.60
2012,11,24,04,58,3.60
2012,11,24,04,59,3.50
2012,11,24,05,00,3.50
2012,11,24,05,01,3.50
2012,11,24,05,02,3.40
2012,11,24,05,03,3.20
2012,11,24,05,04,3.10
2012,11,24,05,05,3.10
2012,11,24,05,06,3.10
2012,11,24,05,07,3.10
2012,11,24,05,08,3.00
2012,11,24,05,09,3.00
2012,11,24,05,10,2.90
2012,11,24,05,11,2.80
2012,11,24,05,12,2.80
2012,11,24,05,13,2.80
2012,11,24,05,14,2.70
2012,11,24,05,15,2.70
2012,11,24,05,16,2.70
2012,11,24,05,17,2.60
2012,11,24,05,18,2.60
2012,11,24,05,19,2.60
2012,11,24,05,20,2.50
2012,11,24,05,21,2.40
2012,11,24,05,22,2.40
2012,11,24,05,23,2.40
2012,11,24,05,24,2.40
2012,11,24,05,25,2.30
2012,11,24,05,26,2.30
2012,11,24,05,27,2.20
2012,11,24,05,28,2.20
2012,11,24,05,29,2.10
2012,11,24,05,30,2.10
2012,11,24,05,31,2.20
2012,11,24,05,32,2.50
2012,11,24,05,33,2.80
2012,11,24,05,34,3.10
2012,11,24,05,35,3.30
2012,11,24,05,36,3.50
2012,11,24,05,37,3.70
2012,11,24,05,38,3.90
2012,11,24,05,39,4.00
2012,11,24,05,40,3.90
2012,11,24,05,41,3.80
2012,11,24,05,42,3.70
2012,11,24,05,43,3.70
2012,11,24,05,44,3.70
2012,11,24,05,45,3.80
2012,11,24,05,46,3.90
2012,11,24,05,47,4.10
2012,11,24,05,48,4.20
2012,11,24,05,49,4.30
2012,11,24,05,50,4.40
2012,11,24,05,51,4.50
2012,11,24,05,52,4.60
2012,11,24,05,53,4.70
2012,11,24,05,54,4.80
2012,11,24,05,55,4.80
2012,11,24,05,56,4.80
2012,11,24,05,57,4.80
2012,11,24,05,58,4.80
2012,11,24,05,59,4.80
2012,11,24,06,00,4.60
2012,11,24,06,01,4.60
2012,11,24,06,02,4.70
2012,11,24,06,03,4.70
2012,11,24,06,04,4.70
2012,11,24,06,05,4.70
2012,11,24,06,06,4.70
2012,11,24,06,07,4.70
2012,11,24,06,08,4.60
2012,11,24,06,09,4.60
2012,11,24,06,10,4.60
2012,11,24,06,11,4.60
2012,11,24,06,12,4.60
2012,11,24,06,13,4.50
2012,11,24,06,14,4.50
2012,11,24,06,15,4.40
2012,11,24,06,16,4.30
2012,11,24,06,17,4.30
2012,11,24,06,18,4.20
2012,11,24,06,19,4.20
2012,11,24,06,20,4.20
2012,11,24,06,21,4.20
2012,11,24,06,22,4.30
2012,11,24,06,23,4.40
2012,11,24,06,24,4.50
2012,11,24,06,25,4.60
2012,11,24,06,26,4.60
2012,11,24,06,27,4.70
2012,11,24,06,28,4.70
2012,11,24,06,29,4.70
2012,11,24,06,30,4.80
2012,11,24,06,31,4.90
2012,11,24,06,32,5.00
2012,11,24,06,33,5.00
2012,11,24,06,34,5.10
2012,11,24,06,35,5.20
2012,11,24,06,36,5.20
2012,11,24,06,37,5.30
2012,11,24,06,38,5.30
2012,11,24,06,39,5.40
2012,11,24,06,40,5.40
2012,11,24,06,41,5.40
2012,11,24,06,42,5.40
2012,11,24,06,43,5.40
2012,11,24,06,44,5.30
2012,11,24,06,45,5.30
2012,11,24,06,46,5.20
2012,11,24,06,47,5.10
2012,11,24,06,48,4.90
2012,11,24,06,49,4.70
2012,11,24,06,50,4.60
2012,11,24,06,51,4.40
2012,11,24,06,52,4.20
2012,11,24,06,53,4.10
2012,11,24,06,54,4.00
2012,11,24,06,55,3.80
2012,11,24,06,56,3.70
2012,11,24,06,57,3.50
2012,11,24,06,58,3.30
2012,11,24,06,59,3.20
2012,11,24,07,00,3.10
2012,11,24,07,01,3.20
2012,11,24,07,02,3.20
2012,11,24,07,03,3.20
2012,11,24,07,04,3.20
2012,11,24,07,05,3.20
2012,11,24,07,06,3.20
2012,11,24,07,07,3.20
2012,11,24,07,08,3.30
2012,11,24,07,09,3.30
2012,11,24,07,10,3.20
2012,11,24,07,11,3.20
2012,11,24,07,12,3.20
2012,11,24,07,13,3.20
2012,11,24,07,14,3.10
2012,11,24,07,15,3.00
2012,11,24,07,16,3.00
2012,11,24,07,17,2.90
2012,11,24,07,18,2.90
2012,11,24,07,19,2.90
2012,11,24,07,20,2.80
2012,11,24,07,21,2.80
2012,11,24,07,22,2.80
2012,11,24,07,23,2.70
2012,11,24,07,24,2.70
2012,11,24,07,25,2.70
2012,11,24,07,26,2.70
2012,11,24,07,27,2.60
2012,11,24,07,28,2.60
2012,11,24,07,29,2.50
2012,11,24,07,30,2.50
2012,11,24,07,31,2.50
2012,11,24,07,32,2.50
2012,11,24,07,33,2.50
2012,11,24,07,34,2.60
2012,11,24,07,35,2.60
2012,11,24,07,36,2.50
2012,11,24,07,37,2.40
2012,11,24,07,38,2.40
2012,11,24,07,39,2.30
2012,11,24,07,40,2.20
2012,11,24,07,41,2.20
2012,11,24,07,42,2.10
2012,11,24,07,43,2.10
2012,11,24,07,44,2.00
2012,11,24,07,45,2.00
2012,11,24,07,46,2.00
2012,11,24,07,47,2.10
2012,11,24,07,48,2.10
2012,11,24,07,49,2.10
2012,11,24,07,50,2.00
2012,11,24,07,51,2.00
2012,11,24,07,52,2.00
2012,11,24,07,53,1.90
2012,11,24,07,54,1.80
2012,11,24,07,55,1.80
2012,11,24,07,56,1.80
2012,11,24,07,57,1.90
2012,11,24,07,58,1.90
2012,11,24,07,59,1.90
2012,11,24,08,00,1.80
2012,11,24,08,01,1.80
2012,11,24,08,02,1.80
2012,11,24,08,03,1.80
2012,11,24,08,04,1.80
2012,11,24,08,05,1.80
2012,11,24,08,06,1.90
2012,11,24,08,07,1.90
2012,11,24,08,08,2.00
2012,11,24,08,09,2.00
2012,11,24,08,10,1.90
2012,11,24,08,11,1.90
2012,11,24,08,12,1.80
2012,11,24,08,13,1.80
2012,11,24,08,14,1.80
2012,11,24,08,15,1.90
2012,11,24,08,16,1.90
2012,11,24,08,17,2.00
2012,11,24,08,18,2.10
2012,11,24,08,19,2.10
2012,11,24,08,20,2.10
2012,11,24,08,21,2.00
2012,11,24,08,22,2.00
2012,11,24,08,23,2.00
2012,11,24,08,24,2.00
2012,11,24,08,25,2.00
2012,11,24,08,26,2.00
2012,11,24,08,27,1.90
2012,11,24,08,28,1.90
2012,11,24,08,29,1.90
2012,11,24,08,30,1.90
2012,11,24,08,31,1.90
2012,11,24,08,32,2.00
2012,11,24,08,33,2.00
2012,11,24,08,34,2.10
2012,11,24,08,35,2.10
2012,11,24,08,36,2.20
2012,11,24,08,37,2.30
2012,11,24,08,38,2.30
2012,11,24,08,39,2.30
2012,11,24,08,40,2.40
2012,11,24,08,41,2.50
2012,11,24,08,42,2.50
2012,11,24,08,43,2.50
2012,11,24,08,44,2.50
2012,11,24,08,45,2.50
2012,11,24,08,46,2.60
2012,11,24,08,47,2.60
2012,11,24,08,48,2.70
2012,11,24,08,49,2.80
2012,11,24,08,50,2.80
2012,11,24,08,51,2.90
2012,11,24,08,52,2.90
2012,11,24,08,53,2.90
2012,11,24,08,54,3.00
2012,11,24,08,55,3.00
2012,11,24,08,56,3.00
2012,11,24,08,57,3.10
2012,11,24,08,58,3.10
2012,11,24,08,59,3.10
2012,11,24,09,00,3.10
2012,11,24,09,01,3.20
2012,11,24,09,02,3.20
2012,11,24,09,03,3.20
2012,11,24,09,04,3.30
2012,11,24,09,05,3.30
2012,11,24,09,06,3.30
2012,11,24,09,07,3.40
2012,11,24,09,08,3.40
2012,11,24,09,09,3.50
2012,11,24,09,10,3.50
2012,11,24,09,11,3.60
2012,11,24,09,12,3.60
2012,11,24,09,13,3.70
2012,11,24,09,14,3.70
2012,11,24,09,15,3.70
2012,11,24,09,16,3.80
2012,11,24,09,17,3.80
2012,11,24,09,18,3.80
2012,11,24,09,19,3.80
2012,11,24,09,20,3.90
2012,11,24,09,21,3.90
2012,11,24,09,22,3.90
2012,11,24,09,23,3.90
2012,11,24,09,24,4.00
2012,11,24,09,25,4.00
2012,11,24,09,26,4.10
2012,11,24,09,27,4.10
2012,11,24,09,28,4.20
2012,11,24,09,29,4.20
2012,11,24,09,30,4.20
2012,11,24,09,31,4.30
2012,11,24,09,32,4.30
2012,11,24,09,33,4.30
2012,11,24,09,34,4.40
2012,11,24,09,35,4.40
2012,11,24,09,36,4.40
2012,11,24,09,37,4.40
2012,11,24,09,38,4.40
2012,11,24,09,39,4.40
2012,11,24,09,40,4.50
2012,11,24,09,41,4.50
2012,11,24,09,42,4.50
2012,11,24,09,43,4.50
2012,11,24,09,44,4.60
2012,11,24,09,45,4.60
2012,11,24,09,46,4.60
2012,11,24,09,47,4.60
2012,11,24,09,48,4.60
2012,11,24,09,49,4.60
2012,11,24,09,50,4.60
2012,11,24,09,51,4.70
2012,11,24,09,52,4.70
2012,11,24,09,53,4.70
2012,11,24,09,54,4.70
2012,11,24,09,55,4.70
2012,11,24,09,56,4.70
2012,11,24,09,57,4.80
2012,11,24,09,58,4.80
2012,11,24,09,59,4.70
2012,11,24,10,00,4.70
2012,11,24,10,01,4.70
2012,11,24,10,02,4.70
2012,11,24,10,03,4.70
2012,11,24,10,04,4.70
2012,11,24,10,05,4.70
2012,11,24,10,06,4.70
2012,11,24,10,07,4.70
2012,11,24,10,08,4.70
2012,11,24,10,09,4.70
2012,11,24,10,10,4.70
2012,11,24,10,11,4.70
2012,11,24,10,12,4.80
2012,11,24,10,13,4.80
2012,11,24,10,14,4.80
2012,11,24,10,15,4.80
2012,11,24,10,16,4.80
2012,11,24,10,17,4.90
2012,11,24,10,18,4.90
2012,11,24,10,19,4.90
2012,11,24,10,20,5.00
2012,11,24,10,21,5.00
2012,11,24,10,22,5.10
2012,11,24,10,23,5.10
2012,11,24,10,24,5.10
2012,11,24,10,25,5.20
2012,11,24,10,26,5.20
2012,11,24,10,27,5.20
2012,11,24,10,28,5.20
2012,11,24,10,29,5.20
2012,11,24,10,30,5.30
2012,11,24,10,31,5.30
2012,11,24,10,32,5.40
2012,11,24,10,33,5.40
2012,11,24,10,34,5.40
2012,11,24,10,35,5.40
2012,11,24,10,36,5.40
2012,11,24,10,37,5.40
2012,11,24,10,38,5.50
2012,11,24,10,39,5.50
2012,11,24,10,40,5.50
2012,11,24,10,41,5.50
2012,11,24,10,42,5.50
2012,11,24,10,43,5.60
2012,11,24,10,44,5.60
2012,11,24,10,45,5.60
2012,11,24,10,46,5.60
2012,11,24,10,47,5.60
2012,11,24,10,48,5.60
2012,11,24,10,49,5.70
2012,11,24,10,50,5.70
2012,11,24,10,51,5.80
2012,11,24,10,52,5.80
2012,11,24,10,53,5.80
2012,11,24,10,54,5.80
2012,11,24,10,55,5.80
2012,11,24,10,56,5.80
2012,11,24,10,57,5.80
2012,11,24,10,58,5.80
2012,11,24,10,59,5.80
2012,11,24,11,00,5.90
2012,11,24,11,01,5.90
2012,11,24,11,02,5.90
2012,11,24,11,03,5.90
2012,11,24,11,04,6.00
2012,11,24,11,05,6.00
2012,11,24,11,06,6.10
2012,11,24,11,07,6.10
2012,11,24,11,08,6.10
2012,11,24,11,09,6.10
2012,11,24,11,10,6.10
2012,11,24,11,11,6.20
2012,11,24,11,12,6.20
2012,11,24,11,13,6.20
2012,11,24,11,14,6.30
2012,11,24,11,15,6.30
2012,11,24,11,16,6.30
2012,11,24,11,17,6.30
2012,11,24,11,18,6.40
2012,11,24,11,19,6.40
2012,11,24,11,20,6.40
2012,11,24,11,21,6.50
2012,11,24,11,22,6.50
2012,11,24,11,23,6.60
2012,11,24,11,24,6.60
2012,11,24,11,25,6.70
2012,11,24,11,26,6.70
2012,11,24,11,27,6.70
2012,11,24,11,28,6.70
2012,11,24,11,29,6.80
2012,11,24,11,30,6.80
2012,11,24,11,31,6.90
2012,11,24,11,32,7.00
2012,11,24,11,33,7.00
2012,11,24,11,34,7.10
2012,11,24,11,35,7.10
2012,11,24,11,36,7.10
2012,11,24,11,37,7.20
2012,11,24,11,38,7.20
2012,11,24,11,39,7.20
2012,11,24,11,40,7.20
2012,11,24,11,41,7.20
2012,11,24,11,42,7.20
2012,11,24,11,43,7.20
2012,11,24,11,44,7.20
2012,11,24,11,45,7.20
2012,11,24,11,46,7.20
2012,11,24,11,47,7.20
2012,11,24,11,48,7.30
2012,11,24,11,49,7.30
2012,11,24,11,50,7.30
2012,11,24,11,51,7.40
2012,11,24,11,52,7.40
2012,11,24,11,53,7.40
2012,11,24,11,54,7.30
2012,11,24,11,55,7.30
2012,11,24,11,56,7.20
2012,11,24,11,57,7.20
2012,11,24,11,58,7.20
2012,11,24,11,59,7.20
2012,11,24,12,00,7.10
2012,11,24,12,01,7.10
2012,11,24,12,02,7.10
2012,11,24,12,03,7.00
2012,11,24,12,04,7.00
2012,11,24,12,05,6.90
2012,11,24,12,06,6.90
2012,11,24,12,07,6.80
2012,11,24,12,08,6.80
2012,11,24,12,09,6.70
2012,11,24,12,10,6.60
2012,11,24,12,11,6.60
2012,11,24,12,12,6.60
2012,11,24,12,13,6.50
2012,11,24,12,14,6.50
2012,11,24,12,15,6.50
2012,11,24,12,16,6.40
2012,11,24,12,17,6.40
2012,11,24,12,18,6.40
2012,11,24,12,19,6.40
2012,11,24,12,20,6.30
2012,11,24,12,21,6.30
2012,11,24,12,22,6.30
2012,11,24,12,23,6.30
2012,11,24,12,24,6.30
2012,11,24,12,25,6.30
2012,11,24,12,26,6.30
2012,11,24,12,27,6.40
2012,11,24,12,28,6.40
2012,11,24,12,29,6.40
2012,11,24,12,30,6.40
2012,11,24,12,31,6.40
2012,11,24,12,32,6.40
2012,11,24,12,33,6.40
2012,11,24,12,34,6.40
2012,11,24,12,35,6.40
2012,11,24,12,36,6.40
2012,11,24,12,37,6.40
2012,11,24,12,38,6.40
2012,11,24,12,39,6.40
2012,11,24,12,40,6.40
2012,11,24,12,41,6.40
2012,11,24,12,42,6.30
2012,11,24,12,43,6.30
2012,11,24,12,44,6.40
2012,11,24,12,45,6.40
2012,11,24,12,46,6.40
2012,11,24,12,47,6.40
2012,11,24,12,48,6.40
2012,11,24,12,49,6.40
2012,11,24,12,50,6.40
2012,11,24,12,51,6.50
2012,11,24,12,52,6.50
2012,11,24,12,53,6.60
2012,11,24,12,54,6.60
2012,11,24,12,55,6.60
2012,11,24,12,56,6.60
2012,11,24,12,57,6.70
2012,11,24,12,58,6.70
2012,11,24,12,59,6.70
2012,11,24,13,00,6.70
2012,11,24,13,01,6.70
2012,11,24,13,02,6.70
2012,11,24,13,03,6.70
2012,11,24,13,04,6.70
2012,11,24,13,05,6.70
2012,11,24,13,06,6.70
2012,11,24,13,07,6.80
2012,11,24,13,08,6.80
2012,11,24,13,09,6.80
2012,11,24,13,10,6.90
2012,11,24,13,11,6.90
2012,11,24,13,12,6.90
2012,11,24,13,13,7.00
2012,11,24,13,14,7.10
2012,11,24,13,15,7.10
2012,11,24,13,16,7.10
2012,11,24,13,17,7.10
2012,11,24,13,18,7.20
2012,11,24,13,19,7.20
2012,11,24,13,20,7.20
2012,11,24,13,21,7.20
2012,11,24,13,22,7.20
2012,11,24,13,23,7.20
2012,11,24,13,24,7.30
2012,11,24,13,25,7.30
2012,11,24,13,26,7.30
2012,11,24,13,27,7.30
2012,11,24,13,28,7.30
2012,11,24,13,29,7.30
2012,11,24,13,30,7.40
2012,11,24,13,31,7.40
2012,11,24,13,32,7.40
2012,11,24,13,33,7.40
2012,11,24,13,34,7.40
2012,11,24,13,35,7.40
2012,11,24,13,36,7.40
2012,11,24,13,37,7.40
2012,11,24,13,38,7.40
2012,11,24,13,39,7.50
2012,11,24,13,40,7.50
2012,11,24,13,41,7.50
2012,11,24,13,42,7.60
2012,11,24,13,43,7.60
2012,11,24,13,44,7.70
2012,11,24,13,45,7.70
2012,11,24,13,46,7.80
2012,11,24,13,47,7.80
2012,11,24,13,48,7.90
2012,11,24,13,49,7.90
2012,11,24,13,50,7.90
2012,11,24,13,51,7.90
2012,11,24,13,52,7.90
2012,11,24,13,53,7.90
2012,11,24,13,54,7.80
2012,11,24,13,55,7.80
2012,11,24,13,56,7.80
2012,11,24,13,57,7.70
2012,11,24,13,58,7.70
2012,11,24,13,59,7.70
2012,11,24,14,00,7.60
2012,11,24,14,01,7.60
2012,11,24,14,02,7.50
2012,11,24,14,03,7.50
2012,11,24,14,04,7.50
2012,11,24,14,05,7.40
2012,11,24,14,06,7.40
2012,11,24,14,07,7.30
2012,11,24,14,08,7.20
2012,11,24,14,09,7.20
2012,11,24,14,10,7.10
2012,11,24,14,11,7.10
2012,11,24,14,12,7.10
2012,11,24,14,13,7.00
2012,11,24,14,14,7.00
2012,11,24,14,15,7.00
2012,11,24,14,16,7.00
2012,11,24,14,17,6.90
2012,11,24,14,18,6.90
2012,11,24,14,19,6.90
2012,11,24,14,20,6.90
2012,11,24,14,21,6.80
2012,11,24,14,22,6.80
2012,11,24,14,23,6.80
2012,11,24,14,24,6.70
2012,11,24,14,25,6.70
2012,11,24,14,26,6.70
2012,11,24,14,27,6.70
2012,11,24,14,28,6.70
2012,11,24,14,29,6.70
2012,11,24,14,30,6.70
2012,11,24,14,31,6.70
2012,11,24,14,32,6.70
2012,11,24,14,33,6.80
2012,11,24,14,34,6.80
2012,11,24,14,35,6.80
2012,11,24,14,36,6.70
2012,11,24,14,37,6.70
2012,11,24,14,38,6.70
2012,11,24,14,39,6.70
2012,11,24,14,40,6.70
2012,11,24,14,41,6.60
2012,11,24,14,42,6.60
2012,11,24,14,43,6.60
2012,11,24,14,44,6.60
2012,11,24,14,45,6.60
2012,11,24,14,46,6.60
2012,11,24,14,47,6.60
2012,11,24,14,48,6.60
2012,11,24,14,49,6.60
2012,11,24,14,50,6.60
2012,11,24,14,51,6.60
2012,11,24,14,52,6.60
2012,11,24,14,53,6.60
2012,11,24,14,54,6.50
2012,11,24,14,55,6.50
2012,11,24,14,56,6.50
2012,11,24,14,57,6.50
2012,11,24,14,58,6.50
2012,11,24,14,59,6.60
2012,11,24,15,00,6.60
2012,11,24,15,01,6.70
2012,11,24,15,02,6.70
2012,11,24,15,03,6.80
2012,11,24,15,04,6.80
2012,11,24,15,05,6.90
2012,11,24,15,06,6.90
2012,11,24,15,07,6.90
2012,11,24,15,08,7.00
2012,11,24,15,09,7.00
2012,11,24,15,10,7.10
2012,11,24,15,11,7.10
2012,11,24,15,12,7.20
2012,11,24,15,13,7.20
2012,11,24,15,14,7.20
2012,11,24,15,15,7.30
2012,11,24,15,16,7.30
2012,11,24,15,17,7.30
2012,11,24,15,18,7.40
2012,11,24,15,19,7.40
2012,11,24,15,20,7.40
2012,11,24,15,21,7.40
2012,11,24,15,22,7.40
2012,11,24,15,23,7.40
2012,11,24,15,24,7.30
2012,11,24,15,25,7.30
2012,11,24,15,26,7.30
2012,11,24,15,27,7.30
2012,11,24,15,28,7.30
2012,11,24,15,29,7.20
2012,11,24,15,30,7.20
2012,11,24,15,31,7.20
2012,11,24,15,32,7.10
2012,11,24,15,33,7.10
2012,11,24,15,34,7.00
2012,11,24,15,35,6.90
2012,11,24,15,36,6.90
2012,11,24,15,37,6.90
2012,11,24,15,38,6.80
2012,11,24,15,39,6.80
2012,11,24,15,40,6.70
2012,11,24,15,41,6.70
2012,11,24,15,42,6.70
2012,11,24,15,43,6.60
2012,11,24,15,44,6.60
2012,11,24,15,45,6.50
2012,11,24,15,46,6.50
2012,11,24,15,47,6.50
2012,11,24,15,48,6.40
2012,11,24,15,49,6.40
2012,11,24,15,50,6.30
2012,11,24,15,51,6.30
2012,11,24,15,52,6.30
2012,11,24,15,53,6.20
2012,11,24,15,54,6.20
2012,11,24,15,55,6.20
2012,11,24,15,56,6.10
2012,11,24,15,57,6.10
2012,11,24,15,58,6.10
2012,11,24,15,59,6.00
2012,11,24,16,00,6.00
2012,11,24,16,01,6.00
2012,11,24,16,02,5.90
2012,11,24,16,03,5.90
2012,11,24,16,04,5.80
2012,11,24,16,05,5.80
2012,11,24,16,06,5.80
2012,11,24,16,07,5.70
2012,11,24,16,08,5.70
2012,11,24,16,09,5.70
2012,11,24,16,10,5.60
2012,11,24,16,11,5.60
2012,11,24,16,12,5.60
2012,11,24,16,13,5.50
2012,11,24,16,14,5.50
2012,11,24,16,15,5.50
2012,11,24,16,16,5.40
2012,11,24,16,17,5.40
2012,11,24,16,18,5.40
2012,11,24,16,19,5.40
2012,11,24,16,20,5.30
2012,11,24,16,21,5.30
2012,11,24,16,22,5.30
2012,11,24,16,23,5.30
2012,11,24,16,24,5.20
2012,11,24,16,25,5.20
2012,11,24,16,26,5.10
2012,11,24,16,27,5.10
2012,11,24,16,28,5.10
2012,11,24,16,29,5.00
2012,11,24,16,30,5.00
2012,11,24,16,31,4.90
2012,11,24,16,32,4.90
2012,11,24,16,33,4.80
2012,11,24,16,34,4.80
2012,11,24,16,35,4.80
2012,11,24,16,36,4.80
2012,11,24,16,37,4.70
2012,11,24,16,38,4.70
2012,11,24,16,39,4.70
2012,11,24,16,40,4.60
2012,11,24,16,41,4.60
2012,11,24,16,42,4.60
2012,11,24,16,43,4.60
2012,11,24,16,44,4.50
2012,11,24,16,45,4.40
2012,11,24,16,46,4.40
2012,11,24,16,47,4.30
2012,11,24,16,48,4.30
2012,11,24,16,49,4.20
2012,11,24,16,50,4.20
2012,11,24,16,51,4.20
2012,11,24,16,52,4.10
2012,11,24,16,53,4.10
2012,11,24,16,54,4.00
2012,11,24,16,55,4.00
2012,11,24,16,56,4.00
2012,11,24,16,57,4.00
2012,11,24,16,58,4.00
2012,11,24,16,59,4.00
2012,11,24,17,00,4.00
2012,11,24,17,01,4.00
2012,11,24,17,02,4.00
2012,11,24,17,03,3.90
2012,11,24,17,04,3.90
2012,11,24,17,05,3.90
2012,11,24,17,06,3.80
2012,11,24,17,07,3.80
2012,11,24,17,08,3.70
2012,11,24,17,09,3.70
2012,11,24,17,10,3.70
2012,11,24,17,11,3.60
2012,11,24,17,12,3.60
2012,11,24,17,13,3.60
2012,11,24,17,14,3.50
2012,11,24,17,15,3.50
2012,11,24,17,16,3.50
2012,11,24,17,17,3.50
2012,11,24,17,18,3.50
2012,11,24,17,19,3.60
2012,11,24,17,20,3.60
2012,11,24,17,21,3.60
2012,11,24,17,22,3.60
2012,11,24,17,23,3.60
2012,11,24,17,24,3.60
2012,11,24,17,25,3.50
2012,11,24,17,26,3.50
2012,11,24,17,27,3.50
2012,11,24,17,28,3.50
2012,11,24,17,29,3.40
2012,11,24,17,30,3.40
2012,11,24,17,31,3.30
2012,11,24,17,32,3.30
2012,11,24,17,33,3.30
2012,11,24,17,34,3.30
2012,11,24,17,35,3.30
2012,11,24,17,36,3.30
2012,11,24,17,37,3.30
2012,11,24,17,38,3.30
2012,11,24,17,39,3.30
2012,11,24,17,40,3.30
2012,11,24,17,41,3.30
2012,11,24,17,42,3.30
2012,11,24,17,43,3.30
2012,11,24,17,44,3.30
2012,11,24,17,45,3.30
2012,11,24,17,46,3.30
2012,11,24,17,47,3.30
2012,11,24,17,48,3.20
2012,11,24,17,49,3.20
2012,11,24,17,50,3.20
2012,11,24,17,51,3.20
2012,11,24,17,52,3.20
2012,11,24,17,53,3.10
2012,11,24,17,54,3.10
2012,11,24,17,55,3.00
2012,11,24,17,56,3.00
2012,11,24,17,57,3.00
2012,11,24,17,58,3.00
2012,11,24,17,59,3.00
2012,11,24,18,00,3.00
2012,11,24,18,01,3.00
2012,11,24,18,02,3.00
2012,11,24,18,03,3.00
2012,11,24,18,04,3.00
2012,11,24,18,05,3.00
2012,11,24,18,06,3.00